Snowfall_Accumulation
0.0 0.0 0.0 0.0 0.0 0.0 0.0 0.0 0.0 0.0 0.0 0.0 0.0 0.0 0.0 0.0 0.0 0.0 0.0 nan nan nan nan nan nan nan nan nan nan nan nan nan nan nan nan nan nan nan
0.0 0.0 0.0 0.0 0.0 0.0 0.0 0.0 0.0 0.0 0.0 0.0 0.0 0.0 0.0 0.0 0.0 0.0 0.0 nan nan nan nan nan nan nan nan nan nan nan nan nan nan nan nan nan nan nan
0.0 0.0 0.0 0.0 0.0 0.0 0.0 0.0 0.0 0.0 0.0 0.0 0.0 0.0 0.0 0.0 0.0 0.0 0.0 0.0 0.0 nan nan nan nan nan nan nan nan nan nan nan nan nan nan nan nan nan
0.0 0.0 0.0 0.0 0.0 0.0 0.0 0.0 0.0 0.0 0.0 0.0 0.0 0.0 0.0 0.0 0.0 0.0 0.0 0.0 0.0 nan nan nan nan nan nan nan nan nan nan nan nan nan nan nan nan nan
0.0 0.0 0.0 0.0 0.0 0.0 0.0 0.0 0.0 0.0 0.0 0.0 0.1 0.0 0.0 0.0 0.0 0.0 0.0 0.0 0.0 nan nan nan nan nan nan nan nan nan nan nan nan nan nan nan nan nan
0.0 0.0 0.0 0.0 0.0 0.0 0.0 0.0 0.0 0.0 0.0 0.0 0.0 0.1 0.0 0.0 0.0 0.0 0.0 0.0 0.0 0.0 nan nan nan nan nan nan nan nan nan nan nan nan nan nan nan nan
0.0 0.0 0.0 nan nan nan 0.0 0.0 0.0 0.0 0.1 0.1 0.1 0.1 0.0 0.0 0.0 0.0 0.0 0.0 0.0 0.0 0.0 0.0 0.0 0.0 0.0 nan nan nan nan nan nan nan nan nan nan nan
0.0 0.0 0.0 0.0 0.0 nan nan nan nan 0.0 0.0 0.1 0.2 0.0 0.0 0.0 0.0 0.0 0.0 0.1 0.3 0.0 0.0 0.0 0.0 0.0 0.0 0.0 nan nan nan nan nan nan nan nan nan nan
0.0 0.0 0.0 0.0 nan 0.0 nan nan nan nan nan 0.0 0.0 0.0 0.0 0.0 0.0 0.0 0.0 0.1 0.0 0.0 0.0 0.0 0.0 0.0 0.0 0.0 nan nan nan nan nan nan nan nan nan nan
0.0 0.0 0.0 0.0 0.0 0.0 0.0 0.0 0.0 0.0 0.0 0.0 0.0 0.0 0.0 0.0 0.0 0.0 0.0 0.0 0.0 0.0 0.0 0.6 0.0 0.0 0.0 0.0 nan nan nan nan nan nan nan nan nan nan
0.0 0.0 0.0 0.0 nan nan 0.0 0.0 0.0 0.0 nan nan nan nan nan nan nan 0.0 0.6 1.0 0.6 0.1 0.0 0.2 0.0 0.1 0.0 0.0 0.0 nan nan nan nan nan nan nan nan nan
0.0 0.0 nan 0.0 nan nan 0.0 0.0 0.0 0.0 0.0 0.0 0.0 0.0 nan nan nan 0.0 0.3 1.8 1.2 1.9 0.1 1.0 0.2 0.6 1.7 0.0 0.0 0.0 0.0 nan nan nan nan nan nan 0.0
0.0 0.0 0.0 nan nan nan nan 0.0 0.1 0.0 0.0 0.1 0.0 0.0 0.0 0.0 0.0 0.0 0.0 0.6 1.8 1.9 0.0 0.6 2.2 1.2 1.4 1.3 0.0 0.0 0.0 0.0 0.0 0.0 nan nan nan 0.0
0.0 0.0 0.0 nan nan nan nan nan nan nan 0.3 0.4 0.4 0.4 0.6 0.8 0.4 0.3 0.1 0.2 0.2 0.3 0.1 0.1 7.5 1.8 4.1 4.0 1.6 0.0 0.0 0.0 0.2 0.2 0.2 nan nan nan
0.0 0.0 nan nan nan nan nan nan nan 0.1 0.6 0.7 0.4 0.8 0.8 0.6 0.5 1.1 0.3 0.1 0.1 0.1 0.0 0.2 1.7 0.8 2.1 3.5 2.7 0.9 0.6 0.2 0.2 0.3 0.3 0.2 0.2 0.2
nan 0.1 nan 0.0 nan nan 0.0 0.0 0.0 0.1 0.7 1.0 1.0 0.4 0.4 2.2 1.7 1.0 2.6 1.7 3.4 2.4 1.1 0.4 0.5 0.5 4.3 1.8 2.5 2.5 0.8 3.8 0.4 0.3 0.3 0.3 0.1 0.0
nan 0.3 0.3 0.4 0.5 0.4 0.4 0.2 0.4 0.5 1.5 1.0 1.3 1.2 0.9 1.7 2.0 1.5 2.6 3.1 5.2 3.6 3.4 2.3 0.9 0.6 1.0 1.7 4.8 0.8 0.5 0.5 0.5 0.7 0.8 0.7 0.3 0.2
0.9 0.7 0.6 0.8 1.1 0.9 1.0 0.7 0.6 0.9 1.0 1.9 2.5 3.0 3.9 4.0 4.3 4.7 3.7 4.4 6.9 4.6 4.9 3.9 4.3 5.9 3.8 2.8 1.4 1.3 0.6 0.8 0.6 0.4 0.5 2.3 1.0 0.2
1.0 0.7 1.2 1.5 1.5 1.5 1.5 1.4 1.9 1.1 0.8 3.3 5.8 7.3 7.5 7.5 7.1 6.7 6.7 5.8 7.5 6.0 6.9 6.3 10.4 10.5 15.6 10.7 2.0 nan 3.7 1.8 1.4 1.1 0.5 0.8 2.1 0.8
0.6 1.1 1.6 1.8 2.0 2.1 2.1 2.1 2.0 2.8 4.0 5.3 7.6 9.6 11.2 12.6 11.2 11.3 8.8 10.4 9.5 8.6 10.0 11.6 15.0 14.2 18.3 16.5 11.3 4.3 nan 2.2 2.4 2.1 2.5 0.6 0.4 nan
0.8 1.8 1.6 2.2 2.0 1.9 2.4 3.5 3.6 4.5 5.5 9.0 9.0 11.7 11.2 13.5 11.5 9.1 8.8 5.7 nan 11.7 14.8 11.4 8.6 nan 14.1 16.8 19.2 6.7 3.5 nan 0.2 3.2 3.2 4.1 3.8 1.8
0.7 1.5 1.4 1.7 2.1 2.7 3.5 3.6 4.4 4.4 5.2 5.9 6.1 8.9 8.5 10.7 12.0 9.6 6.9 9.8 6.2 7.2 11.1 9.9 8.7 11.1 14.7 16.1 14.2 6.5 4.2 2.8 nan nan nan nan 11.8 18.3
1.8 1.8 1.9 2.1 2.6 3.4 4.0 4.1 4.1 4.6 4.0 5.7 7.5 8.9 9.2 13.0 5.6 6.3 7.0 6.5 7.6 10.7 9.4 12.1 9.3 8.0 8.4 10.5 13.3 9.9 6.5 5.0 3.7 5.7 3.9 nan nan nan
Water_Equivalent
0.00 0.00 0.00 0.00 0.00 0.00 0.00 0.00 0.00 0.00 0.00 0.00 0.00 0.00 0.00 0.00 0.00 0.00 0.00 nan nan nan nan nan nan nan nan nan nan nan nan nan nan nan nan nan nan nan
0.00 0.00 0.00 0.00 0.00 0.00 0.00 0.00 0.00 0.00 0.00 0.00 0.00 0.00 0.00 0.00 0.00 0.00 0.00 nan nan nan nan nan nan nan nan nan nan nan nan nan nan nan nan nan nan nan
0.00 0.00 0.00 0.00 0.00 0.00 0.00 0.00 0.00 0.00 0.00 0.00 0.00 0.00 0.00 0.00 0.00 0.00 0.00 0.00 0.00 nan nan nan nan nan nan nan nan nan nan nan nan nan nan nan nan nan
0.00 0.00 0.00 0.00 0.00 0.00 0.00 0.00 0.00 0.00 0.00 0.00 0.00 0.00 0.00 0.00 0.00 0.00 0.00 0.00 0.00 nan nan nan nan nan nan nan nan nan nan nan nan nan nan nan nan nan
0.00 0.00 0.00 0.00 0.00 0.00 0.00 0.00 0.00 0.00 0.00 0.01 0.02 0.02 0.02 0.00 0.00 0.00 0.00 0.00 0.00 nan nan nan nan nan nan nan nan nan nan nan nan nan nan nan nan nan
0.00 0.00 0.00 0.00 0.00 0.00 0.00 0.00 0.00 0.00 0.00 0.00 0.00 0.03 0.02 0.01 0.00 0.00 0.00 0.00 0.00 0.00 nan nan nan nan nan nan nan nan nan nan nan nan nan nan nan nan
0.00 0.00 0.00 nan nan nan 0.00 0.00 0.00 0.00 0.03 0.05 0.05 0.04 0.00 0.00 0.00 0.00 0.00 0.00 0.00 0.00 0.00 0.00 0.00 0.00 0.00 nan nan nan nan nan nan nan nan nan nan nan
0.00 0.00 0.00 0.00 0.00 nan nan nan nan 0.00 0.00 0.06 0.06 0.00 0.00 0.00 0.00 0.00 0.00 0.05 0.11 0.00 0.00 0.00 0.00 0.00 0.00 0.00 nan nan nan nan nan nan nan nan nan nan
0.00 0.00 0.00 0.00 nan 0.00 nan nan nan nan nan 0.00 0.00 0.00 0.00 0.00 0.00 0.00 0.00 0.05 0.01 0.00 0.00 0.00 0.00 0.00 0.00 0.00 nan nan nan nan nan nan nan nan nan nan
0.00 0.00 0.00 0.00 0.00 0.00 0.00 0.00 0.00 0.00 0.00 0.00 0.00 0.00 0.00 0.00 0.00 0.00 0.00 0.00 0.00 0.00 0.00 0.16 0.00 0.00 0.00 0.00 nan nan nan nan nan nan nan nan nan nan
0.00 0.00 0.00 0.00 nan nan 0.00 0.00 0.00 0.00 nan nan nan nan nan nan nan 0.01 0.16 0.26 0.13 0.01 0.00 0.05 0.00 0.01 0.00 0.00 0.00 nan nan nan nan nan nan nan nan nan
0.00 0.00 nan 0.00 nan nan 0.00 0.00 0.01 0.00 0.00 0.00 0.00 0.00 nan nan nan 0.00 0.11 0.45 0.33 0.41 0.02 0.25 0.05 0.11 0.34 0.00 0.00 0.00 0.00 nan nan nan nan nan nan 0.00
0.00 0.00 0.00 nan nan nan nan 0.00 0.01 0.00 0.01 0.01 0.01 0.01 0.00 0.00 0.00 0.01 0.00 0.18 0.47 0.46 0.00 0.18 0.55 0.29 0.34 0.30 0.00 0.00 0.00 0.00 0.00 0.00 nan nan nan 0.00
0.00 0.00 0.00 nan nan nan nan nan nan nan 0.06 0.09 0.08 0.08 0.16 0.22 0.12 0.10 0.01 0.05 0.07 0.08 0.02 0.02 1.73 0.41 0.82 0.69 0.31 0.01 0.01 0.00 0.05 0.06 0.06 nan nan nan
0.00 0.00 nan nan nan nan nan nan nan 0.03 0.12 0.14 0.09 0.21 0.23 0.17 0.12 0.26 0.08 0.04 0.04 0.03 0.00 0.05 0.44 0.17 0.43 0.63 0.48 0.22 0.15 0.08 0.08 0.12 0.11 0.09 0.07 0.07
nan 0.04 nan 0.00 nan nan 0.00 0.00 0.01 0.02 0.16 0.19 0.19 0.08 0.09 0.55 0.39 0.27 0.55 0.37 0.65 0.53 0.22 0.10 0.11 0.10 0.83 0.35 0.49 0.48 0.20 0.78 0.13 0.11 0.13 0.11 0.04 0.01
nan 0.06 0.06 0.10 0.13 0.09 0.08 0.05 0.09 0.11 0.32 0.23 0.27 0.22 0.17 0.35 0.41 0.41 0.56 0.63 0.90 0.66 0.63 0.49 0.16 0.12 0.24 0.32 0.83 0.18 0.11 0.15 0.17 0.25 0.27 0.24 0.10 0.07
0.22 0.16 0.14 0.18 0.22 0.16 0.17 0.13 0.10 0.21 0.24 0.43 0.51 0.60 0.75 0.77 0.81 0.91 0.76 0.84 1.20 0.87 0.88 0.70 0.84 1.03 0.87 0.71 0.33 0.26 0.17 0.24 0.22 0.16 0.18 0.55 0.32 0.10
0.21 0.16 0.25 0.32 0.30 0.31 0.31 0.32 0.42 0.28 0.19 0.77 1.30 1.51 1.51 1.45 1.35 1.11 1.13 1.03 1.20 1.09 1.22 1.11 1.83 1.95 2.10 1.41 0.50 nan 0.84 0.52 0.41 0.31 0.16 0.25 0.56 0.31
0.13 0.22 0.33 0.36 0.38 0.45 0.48 0.46 0.45 0.68 0.93 1.16 1.65 2.06 2.25 2.25 1.87 1.75 1.39 1.58 1.46 1.32 1.46 1.84 2.38 2.57 3.19 2.59 1.68 0.82 nan 0.56 0.61 0.51 0.68 0.21 0.14 nan
0.15 0.36 0.32 0.45 0.44 0.44 0.54 0.86 0.84 1.02 1.24 1.84 1.81 2.21 2.09 2.35 1.86 1.53 1.39 0.91 nan 1.62 1.87 1.43 1.47 nan 2.71 2.68 2.58 1.07 0.79 nan 0.06 0.81 0.84 0.83 0.74 0.41
0.14 0.30 0.29 0.37 0.48 0.63 0.84 0.85 1.00 1.01 1.10 1.25 1.20 1.66 1.57 1.88 1.87 1.41 1.05 1.47 0.93 1.05 1.52 1.55 1.40 1.80 2.43 2.37 1.80 0.79 0.66 0.67 nan nan nan nan 2.21 2.70
0.34 0.34 0.39 0.47 0.58 0.77 0.88 0.88 0.88 1.02 0.91 1.28 1.55 1.64 1.61 1.87 0.92 1.02 1.08 1.00 1.14 1.46 1.24 1.49 1.28 1.25 1.27 1.51 1.70 1.24 0.80 0.68 0.66 1.03 0.84 nan nan nan
SL_Ratio
nan nan nan nan nan nan nan nan nan nan nan nan nan nan nan nan nan nan nan nan nan nan nan nan nan nan nan nan nan nan nan nan nan nan nan nan nan nan
nan nan nan nan nan nan nan nan nan nan nan nan nan nan nan nan nan nan nan nan nan nan nan nan nan nan nan nan nan nan nan nan nan nan nan nan nan nan
nan nan nan nan nan nan nan nan nan nan nan nan nan nan nan nan nan nan nan nan nan nan nan nan nan nan nan nan nan nan nan nan nan nan nan nan nan nan
nan nan nan nan nan nan nan nan nan nan nan nan nan nan nan nan nan nan nan nan nan nan nan nan nan nan nan nan nan nan nan nan nan nan nan nan nan nan
nan nan nan nan nan nan nan nan nan nan 0.0 2.5 2.6 2.4 2.5 nan 0.0 nan nan nan nan nan nan nan nan nan nan nan nan nan nan nan nan nan nan nan nan nan
nan nan nan nan nan nan nan nan nan nan nan nan 2.3 2.5 2.5 2.4 nan 2.5 nan nan nan nan nan nan nan nan nan nan nan nan nan nan nan nan nan nan nan nan
nan nan nan nan nan nan nan nan nan 2.0 2.5 2.5 2.5 2.5 2.7 nan nan nan nan nan nan nan nan nan nan nan nan nan nan nan nan nan nan nan nan nan nan nan
nan nan nan nan nan nan nan nan nan nan nan 2.5 2.5 nan nan nan nan nan 5.0 2.5 2.9 nan nan nan nan nan nan nan nan nan nan nan nan nan nan nan nan nan
nan nan nan nan nan nan nan nan nan nan nan nan nan nan nan nan nan 10.0 nan 2.5 3.0 nan nan 6.0 nan nan nan nan nan nan nan nan nan nan nan nan nan nan
nan nan nan nan nan nan nan nan nan nan nan nan nan nan nan nan nan nan 6.7 6.7 10.0 nan nan 3.8 nan nan nan nan nan nan nan nan nan nan nan nan nan nan
nan nan nan nan nan nan nan 0.0 nan nan nan nan nan nan nan nan nan 4.2 3.7 3.9 4.8 4.8 nan 4.7 5.0 5.6 6.0 5.0 nan nan nan nan nan nan nan nan nan nan
nan nan nan nan nan nan nan nan 5.2 nan nan nan nan nan nan nan nan nan 2.9 4.0 3.8 4.5 5.3 4.1 4.5 5.4 4.9 6.7 nan nan nan nan nan nan nan nan nan nan
nan nan nan nan nan nan nan 4.3 4.7 nan 4.4 4.7 4.4 4.6 5.0 3.6 5.0 3.0 3.8 3.3 3.8 4.1 5.0 3.3 3.9 4.3 4.2 4.2 nan 5.0 nan nan nan nan nan nan nan nan
nan nan nan nan nan nan nan nan nan nan 4.6 4.8 5.1 5.0 3.9 3.5 3.0 3.0 3.8 3.2 2.9 3.7 2.8 4.2 4.3 4.4 4.9 5.9 5.2 3.0 5.4 3.3 3.1 2.6 2.6 nan nan nan
nan nan nan nan nan nan nan nan nan 3.9 4.7 5.2 5.0 3.9 3.6 3.4 4.1 4.1 3.5 3.2 3.4 3.4 4.3 4.1 3.8 4.8 4.7 5.5 5.7 4.1 3.9 2.5 2.5 2.7 2.6 2.5 2.5 2.5
nan 2.5 nan 0.0 nan nan 3.3 nan 3.3 4.3 4.4 4.9 5.0 4.9 4.8 3.9 4.5 3.8 4.7 4.6 5.2 4.6 5.1 4.4 4.5 4.8 5.2 5.1 5.0 5.1 4.0 4.9 2.7 2.5 2.5 2.5 2.5 2.6
nan 4.0 4.0 4.1 4.2 4.8 5.0 5.0 5.1 4.8 4.6 4.5 4.9 5.3 5.4 4.9 4.9 3.7 4.7 4.8 5.9 5.4 5.5 4.6 5.6 5.3 4.3 5.2 5.8 4.5 4.1 3.6 2.8 2.8 3.1 3.0 2.5 2.5
4.1 4.5 4.2 4.5 4.8 5.6 5.7 5.6 5.4 4.4 4.3 4.5 4.8 5.0 5.3 5.2 5.3 5.1 4.9 5.2 5.8 5.3 5.6 5.6 5.1 5.7 4.4 3.9 4.4 4.9 3.6 3.4 2.8 2.6 2.6 4.2 3.1 2.5
4.7 4.3 4.8 4.8 4.8 4.9 4.8 4.4 4.4 4.0 4.2 4.3 4.5 4.9 5.0 5.2 5.3 6.0 5.9 5.6 6.2 5.5 5.6 5.7 5.7 5.4 7.4 7.6 4.0 nan 4.4 3.5 3.4 3.5 2.8 3.1 3.7 2.7
4.9 5.1 4.9 5.1 5.2 4.7 4.4 4.6 4.4 4.1 4.3 4.5 4.6 4.7 5.0 5.6 6.0 6.5 6.3 6.6 6.5 6.5 6.9 6.3 6.3 5.5 5.8 6.4 6.7 5.3 nan 4.0 4.0 4.1 3.7 2.8 2.6 nan
5.5 5.1 5.0 4.9 4.6 4.4 4.4 4.1 4.3 4.4 4.4 4.9 5.0 5.3 5.4 5.7 6.2 5.9 6.3 6.3 nan 7.2 7.9 7.9 5.9 nan 5.2 6.3 7.4 6.2 4.5 nan 3.4 4.0 3.9 5.0 5.1 4.4
5.4 5.0 4.8 4.6 4.5 4.3 4.2 4.2 4.3 4.3 4.8 4.8 5.1 5.3 5.4 5.7 6.4 6.8 6.5 6.6 6.6 6.9 7.3 6.4 6.2 6.2 6.0 6.8 7.9 8.2 6.4 4.2 nan nan nan nan 5.3 6.8
5.2 5.2 4.9 4.5 4.5 4.5 4.5 4.6 4.6 4.5 4.5 4.5 4.8 5.4 5.7 6.9 6.0 6.2 6.5 6.5 6.7 7.3 7.5 8.1 7.2 6.4 6.6 7.0 7.8 8.0 8.1 7.3 5.6 5.5 4.6 nan nan nan